Location: B�di�
(14.6834°N, 3.1047°W)
Time: 17:52:47
(UTC+00:00)

GPS 2-14 Rocket1 - Pass Details

Date: 24 January 2020
Orbit: 477 x 542 km, 20.7° (Epoch: 21 February)

Event Time Altitude Azimuth Distance (km) Brightness Sun altitude
Rises 20:00:06 0° 263° (W) 2,566 7.5 -27.0°
Reaches altitude 10° 20:02:20 10° 267° (W) 1,695 6.2 -27.5°
Enters shadow 20:04:32 31° 280° (W) 901 4.4 -28.0°
